[[[{"header":{"parameterUnit":"kt","parameterCategory":2,"dx":1,"dy":1,"la1":30.253999710083008,"la2":30.299108505249023,"lo1":-89.0895004272461,"lo2":-89.04439544677734,"nx":28,"ny":28,"refTime":"2022-09-29T21:00:00:Z","depth":"0","parameterNumber":2,"parameterNumberName":"U-component_of_CURRENTS"},"data":[0.539,0.5373,0.539,0.533,0.5337,0.5219,0.5207,0.5203,0.5388,0.5699,0.5982,0.6281,0.6778,0.7147,0.7064,0.6833,0.6222,0.5979,0.5816,0.6446,0.6461,0.6475,0.6403,0.6329,0.6329,0.4871,0.4862,0.4854,0.5437,0.5456,0.549,0.5505,0.5488,0.5557,0.5627,0.5595,0.5729,0.6116,0.6342,0.6723,0.6858,0.6962,0.7023,0.6798,0.6355,0.6617,0.6159,0.5957,0.6648,0.6579,0.6542,0.6542,0.6542,0.6542,0.6542,0.6542,0.5534,0.5534,0.5582,0.5614,0.5653,0.5691,0.5682,0.5865,0.604,0.6277,0.6584,0.6826,0.705,0.7191,0.7099,0.6995,0.6794,0.6817,0.6794,0.6484,0.6176,0.6844,0.6926,0.6927,0.6929,0.693,0.6931,0,0.5589,0.5625,0.5656,0.5703,0.5748,0.5799,0.5911,0.6,0.6221,0.6407,0.668,0.6863,0.7127,0.7164,0.724,0.7217,0.6837,0.7073,0.7047,0.6686,0.6297,0.6026,0.6696,0.6833,0.6834,0.6834,0.6835,0.6835,0.5656,0.5673,0.5757,0.5779,0.5817,0.5895,0.5948,0.6113,0.6217,0.6535,0.6614,0.6872,0.7044,0.7242,0.7234,0.726,0.702,0.7099,0.6947,0.6883,0.6819,0.6491,0.6268,0.6847,0.6846,0.6844,0.6843,0,0.5694,0.5745,0.5785,0.5878,0.5908,0.5946,0.6092,0.6161,0.6324,0.6477,0.6529,0.677,0.6942,0.7015,0.711,0.7067,0.6959,0.7108,0.6959,0.6919,0.683,0.6786,0.6582,0.6333,0.7124,0.7125,0.7126,0,0.576,0.5785,0.5863,0.5877,0.5932,0.6018,0.6108,0.6189,0.6342,0.6446,0.6554,0.6678,0.675,0.6872,0.6857,0.6943,0.6985,0.688,0.6859,0.6728,0.6713,0.6676,0.6625,0.6903,0.6902,0.6901,0.6901,0,0.5774,0.585,0.5885,0.5908,0.5997,0.6049,0.6106,0.6232,0.6312,0.6438,0.6503,0.6616,0.6688,0.673,0.6778,0.6709,0.6909,0.6797,0.6799,0.6796,0.6703,0.6686,0.6806,0.6899,0.6899,0.6899,0.6898,0,0.5816,0.5848,0.59,0.5969,0.599,0.6031,0.6141,0.6204,0.6329,0.6358,0.6445,0.6467,0.6584,0.6502,0.6644,0.6583,0.6584,0.6584,0.6588,0.6575,0.6465,0.6446,0.6587,0.6541,0.6565,0.6562,0.656,0,0.5804,0.5853,0.5888,0.5941,0.5967,0.6022,0.6087,0.6154,0.6196,0.6261,0.63,0.6343,0.6313,0.632,0.6377,0.6406,0.646,0.6368,0.6428,0.6431,0.6406,0.6567,0.6439,0.6549,0.6527,0.6531,0.6533,0,0.578,0.5836,0.584,0.5862,0.592,0.5941,0.6021,0.6087,0.6137,0.6144,0.621,0.6243,0.6244,0.6252,0.6238,0.6281,0.6399,0.6231,0.6232,0.6272,0.6527,0.6519,0.654,0.6366,0.637,0.6373,0.6507,0,0.578,0.5802,0.5824,0.5858,0.589,0.5921,0.5953,0.5989,0.5981,0.599,0.6058,0.604,0.6066,0.6063,0.6037,0.6154,0.6128,0.6083,0.6023,0.6126,0.6166,0.6187,0.5914,0.5912,0.591,0.5909,0,0,0.5745,0.5759,0.5768,0.5801,0.5823,0.5825,0.5859,0.5876,0.588,0.5909,0.5857,0.5895,0.5874,0.595,0.5978,0.5953,0.5973,0.5927,0.6065,0.6082,0.6098,0.6142,0.6164,0.5907,0.5906,0.5905,0.5905,0,0.5731,0.5733,0.5754,0.5774,0.5803,0.5803,0.5819,0.5821,0.5829,0.584,0.5823,0.5847,0.5816,0.5838,0.5837,0.5924,0.5893,0.5913,0.5992,0.6049,0.6068,0.6085,0.6133,0.6153,0.5901,0.5902,0.5902,0,0.5703,0.571,0.5713,0.5733,0.574,0.5766,0.5734,0.576,0.5783,0.5717,0.5735,0.5726,0.5709,0.5736,0.5746,0.5708,0.5818,0.5751,0.576,0.5795,0.5852,0.5874,0.5894,0.5642,0.5641,0.564,0,0,0.5697,0.5707,0.5714,0.5729,0.5742,0.5733,0.5741,0.5733,0.5726,0.5721,0.5694,0.5679,0.5689,0.5679,0.5682,0.5695,0.5713,0.5721,0.5733,0.5743,0.5783,0.5843,0.5864,0.5637,0.5637,0.5637,0,0,0.5688,0.5689,0.5683,0.5696,0.5713,0.5702,0.5718,0.5705,0.5697,0.5691,0.5643,0.5635,0.5667,0.5636,0.5603,0.5656,0.5606,0.5611,0.5665,0.568,0.5692,0.574,0.5537,0,0,0,0,0,0.5678,0.5693,0.5687,0.569,0.5685,0.5708,0.5707,0.5689,0.5667,0.5683,0.5659,0.5616,0.5616,0.5586,0.5579,0.5613,0.56,0.5606,0.5613,0.5688,0.5704,0.5717,0,0,0,0,0,0,0.5679,0.568,0.5687,0.5677,0.5677,0.5706,0.566,0.5655,0.5665,0.5661,0.5623,0.5615,0.5577,0.5585,0.558,0.5614,0.5538,0.5602,0.5608,0.5613,0.5693,0.5706,0.5718,0,0,0,0,0,0.568,0.5681,0.5677,0.5676,0.5676,0.5661,0.5659,0.5654,0.5656,0.5617,0.5609,0.5646,0.5578,0.5572,0.5582,0.5618,0.5541,0.554,0.5606,0.5611,0.5615,0.57,0,0,0,0,0,0,0.568,0.5665,0.5677,0.5677,0.5669,0.5659,0.5656,0.5653,0.561,0.5605,0.5637,0.5634,0.5579,0.5574,0.557,0.5623,0.5544,0.5542,0.5541,0.5609,0.5613,0.5616,0,0,0,0,0,0,0.5665,0.5664,0.5676,0.5669,0.5667,0.5658,0.5655,0.5642,0.5609,0.563,0.5628,0.5636,0.5585,0.5576,0.5572,0.5553,0.5546,0.5544,0.5543,0.5542,0.5612,0.5615,0,0,0,0,0,0,0.5665,0.5664,0.5668,0.5667,0.5665,0.5654,0.5645,0.5635,0.5621,0.5631,0.5619,0.5618,0.5587,0.5583,0.5574,0.5557,0.5554,0.5545,0.5544,0.5544,0.5543,0,0,0,0,0,0,0,0.5664,0.5671,0.5688,0.5665,0.5664,0.5675,0.5674,0.5673,0.5621,0.562,0.5619,0.5618,0.5554,0.5553,0.5551,0.556,0,0,0.5546,0.5545,0,0,0,0,0,0,0,0,0.5671,0.5671,0.5688,0.5688,0.5689,0.5675,0.5674,0.5674,0.5621,0.562,0.5619,0.5619,0.5554,0.5552,0.5551,0,0,0,0,0,0,0,0,0,0,0,0,0,0,0,0.5688,0.5688,0,0.5675,0.5674,0.5674,0.5621,0.562,0.562,0.5619,0.5553,0.5552,0.5551,0,0,0,0,0,0,0,0,0,0,0,0,0,0,0,0,0,0,0,0,0,0,0,0,0,0,0,0,0,0,0,0,0,0,0,0,0,0,0,0,0,0,0,0,0,0,0,0,0,0,0,0,0,0,0,0,0,0,0,0,0,0,0,0,0,0,0,0,0]}],[{"header":{"parameterUnit":"kt","parameterCategory":2,"dx":1,"dy":1,"la1":30.253999710083008,"la2":30.299108505249023,"lo1":-89.0895004272461,"lo2":-89.04439544677734,"nx":28,"ny":28,"refTime":"2022-09-29T21:00:00:Z","depth":"0","parameterNumber":3,"parameterNumberName":"V-component_of_CURRENTS"},"data":[0.1273,0.1453,0.1539,0.1855,0.2015,0.2305,0.2493,0.2731,0.2927,0.3086,0.3087,0.2996,0.2122,-0.0294,-0.2176,-0.2643,-0.326,-0.3391,-0.3739,-0.3032,-0.2965,-0.2901,-0.2963,-0.3561,-0.3564,-0.4636,-0.4647,-0.4656,0.1214,0.1324,0.1505,0.1721,0.1909,0.1981,0.2276,0.2448,0.2722,0.289,0.2976,0.2588,0.163,0.0596,-0.0855,-0.1684,-0.2004,-0.2171,-0.2406,-0.2526,-0.1472,-0.1477,-0.1768,-0.1767,-0.1767,-0.1767,-0.1766,-0.1766,0.1106,0.1204,0.1352,0.1535,0.1699,0.1911,0.2081,0.2252,0.2457,0.2632,0.2555,0.2551,0.1761,0.0759,0.015,-0.0943,-0.0969,-0.1249,-0.1511,-0.1636,-0.1852,-0.0661,-0.0833,-0.0833,-0.0833,-0.0833,-0.0833,0,0.1011,0.1067,0.1175,0.137,0.1511,0.167,0.1829,0.1953,0.2019,0.2109,0.2196,0.214,0.1583,0.1074,0.033,-0.0059,-0.084,-0.0564,-0.0979,-0.1307,-0.1483,-0.1723,-0.0512,-0.0612,-0.0611,-0.061,-0.0609,-0.0609,0.0887,0.0969,0.1119,0.1215,0.1268,0.1411,0.1525,0.1555,0.1654,0.1693,0.1767,0.1573,0.1495,0.0899,0.0351,-0.0169,-0.0558,-0.0521,-0.0575,-0.0953,-0.1276,-0.1435,-0.1593,-0.0597,-0.0599,-0.06,-0.0601,0,0.0827,0.0857,0.0987,0.1085,0.1131,0.1237,0.1358,0.1448,0.1426,0.1526,0.1518,0.136,0.1122,0.0762,0.0385,0.0098,-0.0471,-0.0354,-0.0288,-0.0351,-0.0927,-0.1167,-0.1625,-0.184,-0.0619,-0.0621,-0.0623,0,0.072,0.0803,0.0861,0.0926,0.1071,0.1064,0.1197,0.1197,0.1215,0.1298,0.1101,0.1124,0.078,0.0602,0.0313,-0.0011,0.0021,-0.0288,-0.0361,-0.0328,-0.0332,-0.0733,-0.0982,-0.0272,-0.027,-0.0269,-0.0268,0,0.0614,0.0692,0.0791,0.0815,0.0875,0.0942,0.0968,0.0973,0.1026,0.0964,0.0972,0.0818,0.0762,0.0524,0.0247,0.0222,-0.0021,-0.0098,-0.0316,-0.0323,-0.0373,-0.0383,-0.0763,-0.0267,-0.0266,-0.0266,-0.0266,0,0.0506,0.0558,0.0664,0.0741,0.076,0.0799,0.0869,0.0889,0.0861,0.0822,0.0751,0.0648,0.0558,0.0435,0.0206,0.0247,0.0071,-0.0064,-0.0075,-0.0172,-0.027,-0.0363,-0.0359,-0.0752,-0.0228,-0.0227,-0.0226,0,0.041,0.0503,0.0487,0.0575,0.062,0.0584,0.0629,0.0625,0.0581,0.0583,0.0472,0.0441,0.0321,0.0297,0.0215,0.0068,-0.0005,0.0055,-0.0194,-0.02,-0.0244,-0.0227,-0.0206,-0.0339,-0.0213,-0.0214,-0.0215,0,0.0333,0.0359,0.0372,0.0411,0.0389,0.0409,0.0435,0.044,0.0478,0.0388,0.0416,0.0314,0.0243,0.0206,0.0123,0.0058,0.0008,-0.003,-0.0037,-0.0079,-0.0148,-0.0204,-0.0219,-0.0054,-0.0055,-0.0055,-0.0205,0,0.0265,0.0291,0.031,0.0322,0.032,0.0338,0.0302,0.0306,0.0264,0.0224,0.02,0.0098,0.0049,0.0011,-0.004,-0.0051,-0.01,-0.0153,-0.0194,-0.0153,-0.0228,-0.0236,-0.0181,-0.0183,-0.0185,-0.0187,0,0,0.0186,0.0221,0.0179,0.0208,0.0213,0.0136,0.0172,0.0145,0.0095,0.0101,0.0048,-0.0046,-0.0111,-0.0118,-0.0111,-0.0156,-0.0213,-0.0149,-0.0172,-0.017,-0.0168,-0.0236,-0.0241,-0.019,-0.0191,-0.0192,-0.0192,0,0.0164,0.0145,0.0175,0.0164,0.0139,0.0104,0.011,0.0061,0.0048,0.0029,-0.0036,-0.0078,-0.0148,-0.0186,-0.0216,-0.0181,-0.0267,-0.0206,-0.0115,-0.0187,-0.0182,-0.0178,-0.0243,-0.0246,-0.0197,-0.0197,-0.0197,0,0.0109,0.0097,0.0102,0.0082,0.0053,0.0059,-0.0003,-0.0011,-0.0,-0.0101,-0.0103,-0.0168,-0.0238,-0.0256,-0.0269,-0.0291,-0.0318,-0.0303,-0.0295,-0.0274,-0.0351,-0.0345,-0.0339,-0.0409,-0.041,-0.041,0,0,0.009,0.0103,0.0061,0.0072,0.0062,0.0007,-0.0009,-0.0036,-0.0076,-0.0093,-0.0145,-0.02,-0.0241,-0.026,-0.0308,-0.0322,-0.0379,-0.0323,-0.0313,-0.0305,-0.0279,-0.0353,-0.0347,-0.041,-0.041,-0.041,0,0,0.0075,0.0047,0.0025,0.0038,0.0009,-0.005,-0.0051,-0.0083,-0.012,-0.0124,-0.0197,-0.0213,-0.0232,-0.0282,-0.028,-0.0317,-0.0366,-0.0367,-0.0267,-0.0256,-0.0246,-0.0201,-0.0345,0,0,0,0,0,0.003,0.0054,0.0034,0.0029,-0.0017,-0.0039,-0.0049,-0.0096,-0.0118,-0.0113,-0.0162,-0.0207,-0.0297,-0.0297,-0.0312,-0.0293,-0.0418,-0.0416,-0.0415,-0.0291,-0.0279,-0.0268,0,0,0,0,0,0,0.0028,0.0024,0.0033,-0.002,-0.0032,-0.004,-0.0089,-0.0102,-0.0119,-0.0124,-0.0197,-0.021,-0.0262,-0.0294,-0.0306,-0.0287,-0.0342,-0.0417,-0.0416,-0.0415,-0.0287,-0.0277,-0.0268,0,0,0,0,0,0.0026,0.0023,-0.003,-0.0022,-0.0032,-0.0092,-0.0089,-0.01,-0.0115,-0.0191,-0.0205,-0.0146,-0.026,-0.0274,-0.0302,-0.028,-0.0334,-0.0338,-0.0416,-0.0416,-0.0415,-0.0282,0,0,0,0,0,0,0.0024,-0.0,-0.0034,-0.0041,-0.0022,-0.0092,-0.0101,-0.0099,-0.0182,-0.0195,-0.0144,-0.0148,-0.026,-0.0271,-0.0281,-0.0273,-0.0327,-0.0332,-0.0334,-0.0416,-0.0415,-0.0414,0,0,0,0,0,0,0.0001,-0.0005,-0.0038,-0.0034,-0.0041,-0.0093,-0.01,-0.0143,-0.0183,-0.0132,-0.0137,-0.0145,-0.0245,-0.0268,-0.0276,-0.0342,-0.0322,-0.0326,-0.0329,-0.0331,-0.0415,-0.0415,0,0,0,0,0,0,-0.0003,-0.0008,-0.0033,-0.0038,-0.0044,-0.0122,-0.0133,-0.0179,-0.0173,-0.0128,-0.0174,-0.0175,-0.0241,-0.0251,-0.0273,-0.0334,-0.034,-0.0322,-0.0325,-0.0327,-0.0329,0,0,0,0,0,0,0,-0.0006,0.0049,0.0007,-0.0042,-0.0047,-0.01,-0.0102,-0.0104,-0.0174,-0.0174,-0.0174,-0.0175,-0.0299,-0.0303,-0.0308,-0.0328,0,0,-0.0322,-0.0324,0,0,0,0,0,0,0,0,0.0049,0.0049,0.0007,0.0006,0.0005,-0.01,-0.0102,-0.0103,-0.0174,-0.0174,-0.0174,-0.0175,-0.03,-0.0303,-0.0307,0,0,0,0,0,0,0,0,0,0,0,0,0,0,0,0.0007,0.0006,0,-0.01,-0.0102,-0.0103,-0.0174,-0.0174,-0.0174,-0.0174,-0.0301,-0.0304,-0.0307,0,0,0,0,0,0,0,0,0,0,0,0,0,0,0,0,0,0,0,0,0,0,0,0,0,0,0,0,0,0,0,0,0,0,0,0,0,0,0,0,0,0,0,0,0,0,0,0,0,0,0,0,0,0,0,0,0,0,0,0,0,0,0,0,0,0,0,0,0]}]],[[{"header":{"parameterUnit":"kt","parameterCategory":2,"dx":1,"dy":1,"la1":30.253999710083008,"la2":30.299108505249023,"lo1":-89.0895004272461,"lo2":-89.04439544677734,"nx":28,"ny":28,"refTime":"2022-09-29T21:00:00:Z","depth":"2","parameterNumber":2,"parameterNumberName":"U-component_of_CURRENTS"},"data":[0.5297,0.526,0.5275,0.5185,0.5228,0.51,0.5079,0.4892,0.4816,0.4573,0.4416,0.4664,0.4868,0.4025,0.3948,0.3591,0.3866,0.3465,0.5148,0.48,0.487,0.5057,0.4814,0,0,0,0,0,0.5353,0.5407,0.5441,0.5455,0.5389,0.5508,0.5566,0.5441,0.544,0.5521,0.5607,0.5161,0.5002,0.5016,0.4598,0.4658,0.4475,0.4489,0.4117,0.4208,0.4287,0.4057,0.3408,0.3401,0.3395,0.3389,0,0,0.5484,0.5484,0.5532,0.5565,0.5604,0.5639,0.5623,0.5726,0.5867,0.594,0.6335,0.6281,0.6291,0.6023,0.5851,0.5676,0.6135,0.579,0.5805,0.5833,0.5697,0.5604,0.5475,0.5483,0.549,0.5497,0.5502,0,0.5537,0.5574,0.5604,0.5652,0.5698,0.5747,0.5858,0.5945,0.6163,0.6324,0.6584,0.6745,0.691,0.6642,0.6672,0.6585,0.6431,0.6303,0.7137,0.5665,0.5558,0.5508,0.5531,0.5449,0.5458,0.5464,0.5468,0.5472,0.5602,0.5619,0.5704,0.5726,0.5765,0.5844,0.5897,0.6061,0.6162,0.6473,0.6549,0.6802,0.695,0.7141,0.7027,0.7023,0.7135,0.648,0.6261,0.6924,0.688,0.686,0.6841,0.5561,0.555,0.554,0.5533,0,0.5638,0.569,0.573,0.5822,0.5852,0.5892,0.6037,0.6106,0.6268,0.6419,0.647,0.6705,0.6872,0.6945,0.7037,0.6993,0.7032,0.703,0.6372,0.6275,0.6845,0.6827,0.7037,0.7038,0.7039,0.704,0.7041,0,0.5702,0.5728,0.5805,0.582,0.5876,0.596,0.6051,0.6132,0.6283,0.6386,0.6494,0.6613,0.6688,0.6806,0.6792,0.6874,0.6917,0.6809,0.6787,0.6213,0.6161,0.6665,0.6643,0.6837,0.6836,0.6835,0.6834,0,0.5715,0.579,0.5825,0.5848,0.5935,0.5989,0.6046,0.6171,0.625,0.6377,0.6442,0.6554,0.6626,0.6667,0.6715,0.6648,0.6843,0.6734,0.6729,0.6726,0.6198,0.6144,0.6833,0.6833,0.6833,0.6832,0.6832,0,0.5755,0.5787,0.5839,0.5907,0.5928,0.5969,0.6079,0.6141,0.6266,0.6296,0.6383,0.6406,0.6523,0.6443,0.6583,0.6523,0.6525,0.6525,0.6528,0.6509,0.64,0.5915,0.5944,0.6507,0.6505,0.6502,0.65,0,0.5743,0.5791,0.5826,0.5879,0.5905,0.5959,0.6023,0.6091,0.6133,0.6199,0.6238,0.6283,0.6255,0.6265,0.6321,0.635,0.6403,0.6313,0.637,0.6373,0.6343,0.6501,0.5863,0.5927,0.6468,0.6471,0.6473,0,0.5718,0.5773,0.5779,0.58,0.5858,0.5879,0.5958,0.6023,0.6074,0.6084,0.615,0.6184,0.6188,0.6196,0.6183,0.6225,0.6343,0.6177,0.6178,0.6218,0.6468,0.6455,0.6475,0.631,0.6314,0.6318,0.6448,0,0.5717,0.5739,0.5762,0.5796,0.5828,0.5859,0.589,0.5927,0.5922,0.5932,0.6001,0.5984,0.6012,0.6009,0.5984,0.6101,0.6075,0.603,0.597,0.6073,0.6111,0.6132,0.5863,0.5861,0.586,0.5859,0,0,0.5681,0.5697,0.5706,0.5738,0.576,0.5764,0.5797,0.5815,0.5821,0.585,0.5801,0.5841,0.5822,0.5896,0.5926,0.5901,0.592,0.5876,0.6012,0.6029,0.6045,0.6088,0.6109,0.5856,0.5856,0.5855,0.5855,0,0.5666,0.5671,0.5692,0.5711,0.5741,0.5741,0.5757,0.576,0.5769,0.5783,0.5767,0.5793,0.5764,0.5785,0.5785,0.5872,0.5841,0.5862,0.5941,0.5996,0.6015,0.6032,0.6078,0.6099,0.5851,0.5851,0.5851,0,0.5638,0.5646,0.5649,0.5669,0.5677,0.5702,0.5672,0.5699,0.5722,0.5658,0.5679,0.5671,0.5656,0.5683,0.5695,0.5657,0.5766,0.5701,0.571,0.5744,0.58,0.5821,0.5841,0.5591,0.5591,0.559,0,0,0.5632,0.5642,0.5649,0.5665,0.5678,0.567,0.5678,0.5672,0.5666,0.5662,0.5637,0.5625,0.5635,0.5626,0.563,0.5644,0.5661,0.5671,0.5683,0.5693,0.5732,0.5791,0.5812,0.5587,0.5587,0.5587,0,0,0.5622,0.5624,0.5618,0.5633,0.5649,0.5638,0.5655,0.5643,0.5638,0.5634,0.5587,0.558,0.5614,0.5583,0.555,0.5605,0.5555,0.556,0.5614,0.5629,0.5641,0.5688,0.5486,0,0,0,0,0,0.5611,0.5627,0.5622,0.5625,0.5621,0.5643,0.5643,0.5626,0.5607,0.5624,0.5602,0.5561,0.5564,0.5533,0.5527,0.5562,0.555,0.5556,0.5563,0.5638,0.5654,0.5668,0,0,0,0,0,0,0.5612,0.5614,0.5622,0.5611,0.5611,0.5641,0.5597,0.5592,0.5606,0.5602,0.5566,0.5559,0.5522,0.5532,0.5528,0.5563,0.5487,0.5552,0.5558,0.5563,0.5644,0.5657,0.5668,0,0,0,0,0,0.5613,0.5614,0.5613,0.561,0.561,0.5598,0.5596,0.5592,0.5597,0.5559,0.5552,0.5589,0.5523,0.5517,0.5529,0.5566,0.549,0.5488,0.5556,0.556,0.5564,0.565,0,0,0,0,0,0,0.5613,0.5599,0.5612,0.5612,0.5605,0.5596,0.5593,0.5591,0.5551,0.5547,0.5577,0.5575,0.5524,0.5519,0.5515,0.5571,0.5492,0.549,0.5489,0.5559,0.5563,0.5566,0,0,0,0,0,0,0.5599,0.5598,0.5611,0.5606,0.5604,0.5595,0.5592,0.558,0.555,0.557,0.5568,0.5577,0.553,0.5521,0.5518,0.5499,0.5494,0.5492,0.5491,0.5491,0.5562,0.5565,0,0,0,0,0,0,0.5598,0.5598,0.5605,0.5604,0.5602,0.5592,0.5582,0.5574,0.5562,0.557,0.556,0.5559,0.5532,0.5528,0.5519,0.5502,0.55,0.5494,0.5493,0.5492,0.5491,0,0,0,0,0,0,0,0.5598,0.5603,0.5622,0.5602,0.5601,0.5611,0.561,0.5609,0.5562,0.5561,0.5561,0.556,0.5502,0.55,0.5499,0.5505,0,0,0.5494,0.5493,0,0,0,0,0,0,0,0,0.5603,0.5603,0.5622,0.5623,0.5623,0.5611,0.561,0.561,0.5562,0.5561,0.5561,0.556,0.5501,0.55,0.5499,0,0,0,0,0,0,0,0,0,0,0,0,0,0,0,0.5622,0.5623,0,0.5611,0.561,0.561,0.5562,0.5561,0.5561,0.556,0.5501,0.55,0.5499,0,0,0,0,0,0,0,0,0,0,0,0,0,0,0,0,0,0,0,0,0,0,0,0,0,0,0,0,0,0,0,0,0,0,0,0,0,0,0,0,0,0,0,0,0,0,0,0,0,0,0,0,0,0,0,0,0,0,0,0,0,0,0,0,0,0,0,0,0]}],[{"header":{"parameterUnit":"kt","parameterCategory":2,"dx":1,"dy":1,"la1":30.253999710083008,"la2":30.299108505249023,"lo1":-89.0895004272461,"lo2":-89.04439544677734,"nx":28,"ny":28,"refTime":"2022-09-29T21:00:00:Z","depth":"2","parameterNumber":3,"parameterNumberName":"V-component_of_CURRENTS"},"data":[0.1382,0.1569,0.1655,0.1981,0.2126,0.2408,0.2597,0.2835,0.2953,0.3045,0.294,0.2765,0.199,0.1296,0.0557,0.0002,-0.0116,-0.0108,-0.0059,0.0177,0.0187,-0.0317,-0.0222,0,0,0,0,0,0.1318,0.1414,0.1593,0.181,0.2015,0.2069,0.2366,0.2544,0.2811,0.2857,0.2906,0.2397,0.1825,0.1145,0.0187,-0.038,-0.0394,-0.0586,-0.0467,-0.046,-0.0456,-0.0405,-0.0509,-0.0511,-0.0513,-0.0514,0,0,0.1196,0.1293,0.1441,0.1623,0.1787,0.2,0.2171,0.234,0.254,0.2678,0.2599,0.249,0.194,0.1018,0.0413,-0.0256,-0.0236,-0.0483,-0.0477,-0.0472,-0.0424,-0.0387,-0.053,-0.0532,-0.0533,-0.0533,-0.0534,0,0.1103,0.1158,0.1266,0.1459,0.1599,0.1759,0.1918,0.2042,0.2108,0.2192,0.2277,0.2217,0.1682,0.1192,0.0459,0.0116,-0.0255,-0.036,-0.0371,-0.0243,-0.0198,-0.0251,-0.0244,-0.0315,-0.0315,-0.0315,-0.0315,-0.0315,0.0982,0.1063,0.1212,0.1307,0.136,0.1502,0.1615,0.1646,0.1746,0.1783,0.1857,0.1662,0.1581,0.099,0.0468,-0.0044,-0.0134,-0.0339,-0.0379,-0.0366,-0.0425,-0.0412,-0.0401,-0.0314,-0.0314,-0.0314,-0.0314,0,0.0924,0.0954,0.1083,0.1181,0.1227,0.1331,0.1453,0.1541,0.1519,0.1618,0.161,0.1453,0.1216,0.086,0.0485,0.0202,-0.0119,-0.0247,-0.0107,-0.016,-0.039,-0.0382,-0.0506,-0.051,-0.0512,-0.0514,-0.0516,0,0.0821,0.0902,0.0961,0.1025,0.1169,0.1163,0.1294,0.1293,0.1312,0.1394,0.1199,0.1221,0.0881,0.0704,0.0417,0.0096,0.0127,-0.0179,-0.0251,-0.0153,-0.0151,-0.0179,-0.018,-0.0162,-0.016,-0.0159,-0.0158,0,0.0718,0.0796,0.0893,0.0917,0.0979,0.1044,0.1071,0.1075,0.1128,0.1065,0.1073,0.092,0.0864,0.0628,0.0353,0.0329,0.0087,0.0012,-0.0206,-0.0212,-0.0199,-0.0203,-0.0157,-0.0157,-0.0156,-0.0156,-0.0156,0,0.0613,0.0666,0.077,0.0846,0.0866,0.0905,0.0973,0.0994,0.0965,0.0927,0.0855,0.0754,0.0664,0.0542,0.0315,0.0356,0.0181,0.0048,0.0037,-0.006,-0.0156,-0.0182,-0.0164,-0.0117,-0.0116,-0.0115,-0.0114,0,0.0519,0.0612,0.0597,0.0684,0.0728,0.0694,0.0738,0.0734,0.069,0.0691,0.0582,0.0551,0.0433,0.0407,0.0327,0.0181,0.0108,0.0168,-0.0079,-0.0085,-0.013,-0.0115,-0.0019,-0.0147,-0.01,-0.0101,-0.0103,0,0.0443,0.0471,0.0483,0.0522,0.05,0.0521,0.0546,0.0552,0.0588,0.0499,0.0526,0.0427,0.0355,0.0319,0.0237,0.0173,0.0122,0.0086,0.0079,0.0035,-0.0035,-0.0091,-0.0107,0.006,0.006,0.0059,-0.0092,0,0.0378,0.0403,0.0422,0.0434,0.0433,0.0451,0.0415,0.0419,0.0377,0.0336,0.0313,0.0213,0.0164,0.0128,0.0077,0.0067,0.0017,-0.0034,-0.0075,-0.0035,-0.011,-0.0118,-0.006,-0.0063,-0.0064,-0.0066,0,0,0.03,0.0334,0.0293,0.0322,0.0328,0.025,0.0286,0.026,0.021,0.0215,0.0162,0.0071,0.0007,0.0001,0.0008,-0.0036,-0.0092,-0.003,-0.0053,-0.0051,-0.005,-0.0118,-0.0123,-0.0069,-0.007,-0.0071,-0.0071,0,0.0278,0.026,0.0289,0.0279,0.0254,0.022,0.0225,0.0177,0.0163,0.0145,0.0081,0.0038,-0.003,-0.0066,-0.0095,-0.006,-0.0146,-0.0084,0.0004,-0.0067,-0.0063,-0.0059,-0.0125,-0.0128,-0.0076,-0.0076,-0.0076,0,0.0224,0.0213,0.0217,0.0199,0.017,0.0176,0.0114,0.0105,0.0116,0.0017,0.0014,-0.005,-0.0118,-0.0134,-0.0147,-0.0169,-0.0196,-0.0181,-0.0172,-0.0152,-0.0229,-0.0223,-0.0218,-0.0285,-0.0285,-0.0285,0,0,0.0206,0.0219,0.0177,0.0189,0.0179,0.0125,0.0109,0.0081,0.0041,0.0024,-0.0028,-0.0081,-0.012,-0.014,-0.0187,-0.0199,-0.0256,-0.0201,-0.0191,-0.0182,-0.0157,-0.0231,-0.0225,-0.0286,-0.0286,-0.0286,0,0,0.0191,0.0164,0.0141,0.0155,0.0126,0.0069,0.0068,0.0035,-0.0001,-0.0006,-0.0078,-0.0094,-0.0113,-0.0161,-0.016,-0.0196,-0.0244,-0.0245,-0.0147,-0.0136,-0.0127,-0.0083,-0.0225,0,0,0,0,0,0.0147,0.0171,0.0151,0.0146,0.0101,0.008,0.007,0.0023,-0.0,0.0004,-0.0044,-0.0089,-0.0176,-0.0177,-0.0191,-0.0174,-0.0294,-0.0292,-0.0291,-0.017,-0.0158,-0.0147,0,0,0,0,0,0,0.0145,0.0142,0.0149,0.0099,0.0087,0.0079,0.003,0.0017,-0.0001,-0.0007,-0.0079,-0.0092,-0.0142,-0.0174,-0.0186,-0.0168,-0.0221,-0.0293,-0.0292,-0.0291,-0.0166,-0.0156,-0.0147,0,0,0,0,0,0.0143,0.014,0.0089,0.0096,0.0086,0.0027,0.003,0.0018,0.0003,-0.0072,-0.0085,-0.0029,-0.0141,-0.0155,-0.0181,-0.0161,-0.0214,-0.0218,-0.0292,-0.0291,-0.0291,-0.0161,0,0,0,0,0,0,0.0142,0.0118,0.0085,0.0078,0.0095,0.0026,0.0017,0.002,-0.0063,-0.0075,-0.0026,-0.003,-0.014,-0.0151,-0.0161,-0.0154,-0.0207,-0.0212,-0.0214,-0.0292,-0.0291,-0.029,0,0,0,0,0,0,0.0119,0.0113,0.0081,0.0083,0.0076,0.0026,0.0018,-0.0023,-0.0063,-0.0013,-0.0018,-0.0027,-0.0126,-0.0148,-0.0156,-0.0219,-0.0203,-0.0207,-0.0209,-0.0211,-0.0291,-0.0291,0,0,0,0,0,0,0.0115,0.011,0.0084,0.0079,0.0073,-0.0003,-0.0013,-0.0058,-0.0055,-0.0009,-0.0056,-0.0057,-0.0122,-0.0132,-0.0153,-0.0212,-0.0217,-0.0203,-0.0205,-0.0207,-0.0209,0,0,0,0,0,0,0,0.0112,0.0166,0.0125,0.0076,0.0071,0.002,0.0018,0.0016,-0.0055,-0.0055,-0.0056,-0.0056,-0.018,-0.0184,-0.0188,-0.0206,0,0,-0.0202,-0.0204,0,0,0,0,0,0,0,0,0.0166,0.0166,0.0125,0.0124,0.0123,0.002,0.0018,0.0017,-0.0055,-0.0055,-0.0056,-0.0056,-0.0181,-0.0184,-0.0188,0,0,0,0,0,0,0,0,0,0,0,0,0,0,0,0.0125,0.0124,0,0.002,0.0018,0.0017,-0.0055,-0.0055,-0.0056,-0.0056,-0.0182,-0.0185,-0.0188,0,0,0,0,0,0,0,0,0,0,0,0,0,0,0,0,0,0,0,0,0,0,0,0,0,0,0,0,0,0,0,0,0,0,0,0,0,0,0,0,0,0,0,0,0,0,0,0,0,0,0,0,0,0,0,0,0,0,0,0,0,0,0,0,0,0,0,0,0]}]],[[{"header":{"parameterUnit":"kt","parameterCategory":2,"dx":1,"dy":1,"la1":30.253999710083008,"la2":30.299108505249023,"lo1":-89.0895004272461,"lo2":-89.04439544677734,"nx":28,"ny":28,"refTime":"2022-09-29T21:00:00:Z","depth":"4","parameterNumber":2,"parameterNumberName":"U-component_of_CURRENTS"},"data":[0.2784,0.2876,0.2899,0.2842,0.2861,0.298,0.3126,0.3344,0.3319,0.3644,0.3687,0.3916,0.4031,0.425,0.4146,0.419,0.4121,0.4616,0.4604,0.4679,0.4711,0.4739,0.4568,0,0,0,0,0,0.2872,0.2882,0.2993,0.3089,0.3241,0.3335,0.3581,0.3734,0.4035,0.3945,0.4123,0.4203,0.4241,0.4379,0.4245,0.4626,0.4691,0.445,0.4493,0.4699,0.4734,0.4555,0,0,0,0,0,0,0.2999,0.3042,0.321,0.3334,0.3506,0.3553,0.3704,0.381,0.3948,0.4324,0.4331,0.4575,0.4822,0.4752,0.4786,0.4742,0.4648,0.445,0.4496,0.4532,0.4347,0.4184,0.3944,0,0,0,0,0,0.3085,0.3229,0.3343,0.3524,0.368,0.381,0.4019,0.4078,0.4373,0.4654,0.4702,0.475,0.488,0.4931,0.4967,0.4941,0.5171,0.5067,0.5083,0.4947,0.487,0.4817,0.4822,0.4869,0.4874,0.4877,0.4879,0,0.3213,0.3282,0.3567,0.3656,0.3792,0.4001,0.4117,0.4399,0.4508,0.4858,0.49,0.5149,0.5266,0.5153,0.5313,0.5293,0.5226,0.5161,0.5017,0.4926,0.4866,0.4861,0.4856,0.4907,0.4905,0.4903,0.49,0,0.3277,0.3433,0.3576,0.3826,0.3918,0.4037,0.4326,0.4432,0.4691,0.4869,0.4957,0.5207,0.5331,0.5454,0.5562,0.5402,0.5368,0.5285,0.5564,0.5514,0.4917,0.4899,0.4954,0.4944,0.4935,0.4928,0.4921,0,0.3401,0.3504,0.3737,0.3795,0.3952,0.4115,0.4308,0.4459,0.4691,0.4817,0.5019,0.5124,0.5309,0.542,0.5429,0.5353,0.5556,0.518,0.5121,0.5363,0.5345,0.5325,0.53,0.5527,0.5527,0.5526,0.5525,0,0.3445,0.3629,0.3746,0.3805,0.4003,0.4128,0.4256,0.4465,0.4589,0.4824,0.493,0.5111,0.5234,0.5302,0.5365,0.5324,0.5499,0.5417,0.5131,0.5108,0.5311,0.5288,0.5524,0.5524,0.5524,0.5524,0.5523,0,0.3529,0.3615,0.3753,0.3921,0.3967,0.4073,0.4282,0.4398,0.4607,0.4704,0.4866,0.494,0.5116,0.5065,0.5238,0.5189,0.5202,0.5208,0.521,0.4877,0.4731,0.4951,0.5162,0.516,0.5157,0.5154,0.5152,0,0.3522,0.3642,0.3722,0.3857,0.3922,0.4045,0.4163,0.4297,0.4418,0.4563,0.4666,0.4798,0.4803,0.4876,0.4954,0.5004,0.5069,0.4981,0.5017,0.5018,0.4699,0.4822,0.5014,0.5114,0.5119,0.5122,0.5125,0,0.3484,0.3641,0.3665,0.3733,0.3866,0.3912,0.4062,0.419,0.4299,0.4417,0.4553,0.4681,0.4733,0.4766,0.479,0.4853,0.5004,0.4821,0.4821,0.4839,0.5141,0.4815,0.4805,0.499,0.4995,0.4999,0.5099,0,0.3503,0.359,0.3633,0.3729,0.3796,0.3875,0.3956,0.4062,0.4148,0.4203,0.4377,0.4423,0.4524,0.4553,0.4549,0.4712,0.4681,0.4633,0.4551,0.469,0.471,0.4731,0.4441,0.4439,0.4436,0.4434,0,0,0.3451,0.3514,0.3564,0.3625,0.3684,0.3747,0.3816,0.3884,0.3987,0.4058,0.4063,0.4235,0.4262,0.4385,0.445,0.4442,0.4464,0.4437,0.4615,0.4635,0.4654,0.4681,0.4704,0.4431,0.443,0.4429,0.4428,0,0.3415,0.3483,0.3538,0.3587,0.3677,0.3701,0.3745,0.3816,0.3888,0.3991,0.4019,0.4118,0.4187,0.4231,0.4253,0.44,0.4371,0.4423,0.4531,0.4593,0.4616,0.4636,0.4668,0.469,0.4423,0.4423,0.4423,0,0.3371,0.3409,0.3445,0.3513,0.3563,0.3618,0.3621,0.3711,0.378,0.3764,0.3905,0.3945,0.3968,0.4068,0.4122,0.4076,0.427,0.42,0.4212,0.4237,0.4297,0.4324,0.4348,0.4035,0.4034,0.4033,0,0,0.3348,0.3405,0.3442,0.3504,0.3538,0.3587,0.363,0.3669,0.3724,0.3767,0.3813,0.3871,0.3928,0.3968,0.4011,0.409,0.409,0.4154,0.4172,0.4188,0.422,0.4284,0.4311,0.4029,0.4028,0.4028,0,0,0.3325,0.3375,0.3405,0.3467,0.3518,0.3539,0.3604,0.3636,0.3718,0.3757,0.3759,0.3773,0.3899,0.3885,0.383,0.3996,0.3919,0.393,0.4004,0.4026,0.4044,0.4073,0.3776,0,0,0,0,0,0.3315,0.336,0.3387,0.3403,0.3475,0.352,0.3532,0.359,0.3629,0.3678,0.3736,0.3715,0.3863,0.3813,0.382,0.3904,0.3974,0.3983,0.3993,0.4108,0.4132,0.4152,0,0,0,0,0,0,0.3321,0.3336,0.3386,0.3403,0.3421,0.3517,0.3517,0.3532,0.3626,0.3637,0.3703,0.3713,0.37,0.3807,0.3814,0.3895,0.3773,0.3977,0.3986,0.3993,0.4116,0.4136,0.4152,0,0,0,0,0,0.3326,0.3338,0.3444,0.3403,0.3419,0.3498,0.3518,0.3531,0.3621,0.3627,0.3642,0.3677,0.3697,0.3709,0.3811,0.3893,0.3768,0.3771,0.3983,0.3989,0.3995,0.4126,0,0,0,0,0,0,0.3329,0.334,0.3449,0.3455,0.3421,0.3497,0.3511,0.353,0.3608,0.3623,0.3591,0.3597,0.3695,0.3704,0.3713,0.3895,0.3764,0.3767,0.3768,0.3988,0.3993,0.3997,0,0,0,0,0,0,0.3335,0.3345,0.3452,0.347,0.348,0.3496,0.3509,0.353,0.3608,0.3567,0.3575,0.3593,0.3692,0.3701,0.3708,0.3738,0.3761,0.3763,0.3765,0.3766,0.3992,0.3996,0,0,0,0,0,0,0.334,0.3349,0.3469,0.3476,0.3484,0.3561,0.3516,0.3592,0.3615,0.3562,0.362,0.3623,0.3688,0.3696,0.3704,0.3731,0.3736,0.3761,0.3763,0.3764,0.3765,0,0,0,0,0,0,0,0.3344,0.3271,0.3414,0.348,0.3487,0.352,0.3521,0.3522,0.3615,0.3618,0.362,0.3622,0.3746,0.3749,0.3752,0.3725,0,0,0.3761,0.3762,0,0,0,0,0,0,0,0,0.3268,0.327,0.3414,0.3416,0.3418,0.352,0.3521,0.3522,0.3616,0.3617,0.3619,0.3621,0.3747,0.3749,0.3751,0,0,0,0,0,0,0,0,0,0,0,0,0,0,0,0.3415,0.3416,0,0.352,0.3521,0.3522,0.3616,0.3617,0.3619,0.362,0.3747,0.3749,0.3751,0,0,0,0,0,0,0,0,0,0,0,0,0,0,0,0,0,0,0,0,0,0,0,0,0,0,0,0,0,0,0,0,0,0,0,0,0,0,0,0,0,0,0,0,0,0,0,0,0,0,0,0,0,0,0,0,0,0,0,0,0,0,0,0,0,0,0,0,0]}],[{"header":{"parameterUnit":"kt","parameterCategory":2,"dx":1,"dy":1,"la1":30.253999710083008,"la2":30.299108505249023,"lo1":-89.0895004272461,"lo2":-89.04439544677734,"nx":28,"ny":28,"refTime":"2022-09-29T21:00:00:Z","depth":"4","parameterNumber":3,"parameterNumberName":"V-component_of_CURRENTS"},"data":[0.1259,0.1401,0.1468,0.1692,0.1825,0.201,0.2111,0.2137,0.2125,0.2104,0.1863,0.1712,0.1255,0.1534,0.0788,0.0686,0.05,0.0046,0.0037,-0.0213,-0.0207,-0.0202,-0.011,0,0,0,0,0,0.1216,0.1317,0.1457,0.1629,0.1779,0.1888,0.2029,0.2066,0.2109,0.2088,0.2048,0.1812,0.1327,0.1125,0.0792,0.068,0.0232,0.0272,0.0067,-0.0209,-0.0203,-0.0115,0,0,0,0,0,0,0.1166,0.124,0.1373,0.1519,0.1678,0.1831,0.1886,0.1968,0.203,0.2019,0.2,0.1713,0.1545,0.1053,0.0732,0.0401,0.0297,0.016,0.0147,0.0149,0.0271,0.0376,0.0322,0,0,0,0,0,0.111,0.1171,0.1254,0.1425,0.1549,0.1681,0.1813,0.1879,0.1922,0.1912,0.1863,0.1618,0.1373,0.0991,0.0636,0.0305,0.0046,-0.0065,-0.0065,-0.0085,-0.004,-0.0079,-0.0066,-0.0178,-0.0177,-0.0177,-0.0176,0,0.1054,0.1111,0.1247,0.1329,0.138,0.15,0.1592,0.1627,0.1694,0.1698,0.1739,0.1565,0.1428,0.0968,0.0641,0.0185,0.0108,-0.0046,-0.0067,-0.0028,-0.0072,-0.0059,-0.0048,-0.0171,-0.0171,-0.0172,-0.0172,0,0.1031,0.1063,0.1157,0.1241,0.1287,0.1366,0.1481,0.1538,0.1529,0.1587,0.1584,0.1441,0.1225,0.094,0.0614,0.0405,0.0137,0.0033,0.0184,0.0137,-0.0044,-0.0034,-0.0162,-0.0164,-0.0166,-0.0167,-0.0168,0,0.0981,0.1041,0.1098,0.114,0.125,0.1249,0.1349,0.1346,0.1359,0.1407,0.1264,0.1262,0.0993,0.0832,0.0599,0.0333,0.0338,0.0121,0.0063,0.0167,0.0175,0.0121,0.0125,0.0101,0.0103,0.0104,0.0105,0,0.0928,0.0982,0.105,0.1066,0.1111,0.1163,0.1189,0.1182,0.1218,0.1164,0.117,0.1032,0.0988,0.0786,0.056,0.055,0.032,0.0269,0.0107,0.0103,0.0129,0.0131,0.0106,0.0106,0.0107,0.0107,0.0108,0,0.0866,0.0898,0.0968,0.1022,0.1036,0.107,0.1114,0.1124,0.1091,0.1062,0.1,0.0925,0.084,0.0757,0.0547,0.0596,0.0448,0.0337,0.0327,0.0279,0.0215,0.0201,0.0196,0.0198,0.0199,0.0201,0.0202,0,0.081,0.0866,0.0858,0.0918,0.0946,0.0924,0.0952,0.0942,0.0908,0.0901,0.0811,0.0786,0.07,0.0684,0.0603,0.0484,0.0407,0.0474,0.0259,0.0253,0.0241,0.023,0.0376,0.0222,0.0219,0.0217,0.0216,0,0.0761,0.0778,0.0787,0.0814,0.0798,0.0811,0.0825,0.0822,0.0841,0.0776,0.0786,0.0704,0.0652,0.0622,0.056,0.0494,0.0429,0.0436,0.043,0.0383,0.0274,0.0254,0.0241,0.0382,0.0381,0.038,0.023,0,0.0712,0.0733,0.0746,0.0753,0.0753,0.0763,0.0736,0.0737,0.071,0.0677,0.065,0.0575,0.0532,0.0501,0.0467,0.0436,0.0404,0.0367,0.0337,0.0352,0.0282,0.0272,0.0371,0.037,0.0369,0.0368,0,0,0.0663,0.0685,0.066,0.0676,0.068,0.0629,0.0652,0.0632,0.0595,0.0593,0.0563,0.0488,0.0439,0.0418,0.0421,0.0389,0.0341,0.0396,0.0349,0.0348,0.0346,0.0281,0.0273,0.0365,0.0365,0.0365,0.0364,0,0.0642,0.0636,0.0657,0.0648,0.063,0.0606,0.061,0.0575,0.0565,0.055,0.0505,0.0468,0.0421,0.0385,0.036,0.0375,0.031,0.036,0.0414,0.0341,0.0341,0.0341,0.0278,0.0271,0.0361,0.0361,0.0362,0,0.0602,0.0593,0.06,0.0586,0.0568,0.0571,0.0529,0.0524,0.0528,0.0462,0.0461,0.0416,0.0364,0.0346,0.0335,0.0319,0.0277,0.0302,0.0307,0.0323,0.0246,0.0246,0.0247,0.0239,0.0239,0.0239,0,0,0.0585,0.0597,0.0566,0.0577,0.0572,0.0534,0.0525,0.0505,0.0478,0.0468,0.0433,0.0394,0.0363,0.0347,0.0314,0.0298,0.0249,0.0291,0.0297,0.0302,0.032,0.0245,0.0246,0.0239,0.0239,0.0239,0,0,0.0571,0.0552,0.0539,0.0553,0.0532,0.049,0.0494,0.0471,0.0449,0.0449,0.0398,0.0388,0.0372,0.0337,0.0341,0.0304,0.0275,0.0273,0.0338,0.0344,0.035,0.0382,0.0297,0,0,0,0,0,0.0535,0.0555,0.0544,0.0542,0.0514,0.0496,0.049,0.0461,0.045,0.0454,0.0422,0.0392,0.0327,0.033,0.032,0.0325,0.0237,0.0237,0.0238,0.0316,0.0323,0.0329,0,0,0,0,0,0,0.0534,0.0532,0.0543,0.0506,0.0499,0.0495,0.0465,0.0457,0.0449,0.0446,0.0399,0.039,0.0354,0.0332,0.0324,0.033,0.03,0.0237,0.0238,0.0238,0.0319,0.0325,0.033,0,0,0,0,0,0.0533,0.0531,0.0501,0.0504,0.0498,0.0462,0.0465,0.0458,0.0452,0.04,0.0391,0.0434,0.0355,0.0346,0.0327,0.0335,0.0305,0.0302,0.0237,0.0238,0.0238,0.0321,0,0,0,0,0,0,0.0532,0.0517,0.0498,0.0494,0.0505,0.0462,0.0457,0.046,0.0406,0.0398,0.0432,0.043,0.0356,0.0348,0.0341,0.0339,0.031,0.0307,0.0305,0.0238,0.0238,0.0238,0,0,0,0,0,0,0.0518,0.0515,0.0496,0.0499,0.0495,0.0461,0.0457,0.0427,0.0405,0.0441,0.0438,0.0432,0.0364,0.035,0.0344,0.0298,0.0313,0.031,0.0308,0.0307,0.0238,0.0238,0,0,0,0,0,0,0.0515,0.0512,0.05,0.0496,0.0493,0.0445,0.0433,0.0404,0.0415,0.0443,0.0415,0.0414,0.0366,0.036,0.0347,0.0303,0.0299,0.0313,0.0311,0.031,0.0309,0,0,0,0,0,0,0,0.0513,0.0547,0.0523,0.0495,0.0491,0.0457,0.0456,0.0455,0.0415,0.0415,0.0415,0.0414,0.033,0.0327,0.0323,0.0307,0,0,0.0313,0.0312,0,0,0,0,0,0,0,0,0.0547,0.0547,0.0523,0.0522,0.0522,0.0457,0.0456,0.0455,0.0415,0.0415,0.0415,0.0414,0.0329,0.0326,0.0324,0,0,0,0,0,0,0,0,0,0,0,0,0,0,0,0.0523,0.0522,0,0.0457,0.0456,0.0455,0.0415,0.0415,0.0415,0.0415,0.0328,0.0326,0.0324,0,0,0,0,0,0,0,0,0,0,0,0,0,0,0,0,0,0,0,0,0,0,0,0,0,0,0,0,0,0,0,0,0,0,0,0,0,0,0,0,0,0,0,0,0,0,0,0,0,0,0,0,0,0,0,0,0,0,0,0,0,0,0,0,0,0,0,0,0]}]]]